IRIDIUM 106 1 41917U 17003A 26074.60567440 .00000091 00000+0 25441-4 0 9993 2 41917 86.3968 127.6899 0002226 106.3551 253.7890 14.34217448479797 IRIDIUM 103 1 41918U 17003B 26074.59298861 .00000149 00000+0 46169-4 0 9994 2 41918 86.3968 127.5953 0001973 89.4861 270.6561 14.34218049479815 IRIDIUM 109 1 41919U 17003C 26074.52956331 .00000048 00000+0 10104-4 0 9999 2 41919 86.3969 127.6797 0002132 94.5086 265.6354 14.34217706479776 IRIDIUM 102 1 41920U 17003D 26074.56761916 .00000045 00000+0 88276-5 0 9991 2 41920 86.3967 127.5895 0002273 95.6459 264.4996 14.34217768479863 IRIDIUM 105 1 41921U 17003E 26074.53263358 .00000252 00000+0 82765-4 0 9992 2 41921 86.3913 96.0476 0002255 94.0791 266.0663 14.34399270481717 IRIDIUM 104 1 41922U 17003F 26074.58030415 .00000065 00000+0 16070-4 0 9992 2 41922 86.3970 127.6253 0002212 86.6439 273.5010 14.34217924479850 IRIDIUM 114 1 41923U 17003G 26074.58664551 .00000210 00000+0 67973-4 0 9997 2 41923 86.3968 127.6060 0002071 90.7743 269.3691 14.34217151479839 IRIDIUM 108 1 41924U 17003H 26074.54516746 .00000059 00000+0 14061-4 0 9997 2 41924 86.3906 95.9314 0002368 93.1751 266.9716 14.34217475481682 IRIDIUM 112 1 41925U 17003J 26074.57396158 .00000098 00000+0 27760-4 0 9997 2 41925 86.3963 127.4579 0002248 91.7535 268.3918 14.34218029479853 IRIDIUM 111 1 41926U 17003K 26074.56127616 -.00000005 00000+0 -89419-5 0 9998 2 41926 86.3967 127.5313 0002000 95.0986 265.0439 14.34217426479838 IRIDIUM 113 1 42803U 17039A 26074.54125523 .00000983 00000+0 34390-3 0 9994 2 42803 86.4033 1.3086 0002223 77.6639 282.4806 14.34214762457761 IRIDIUM 123 1 42804U 17039B 26074.58271889 .00000035 00000+0 53113-5 0 9990 2 42804 86.3985 32.7409 0001989 85.5871 274.5552 14.34217917456537 IRIDIUM 120 1 42805U 17039C 26074.53489806 .00000031 00000+0 41811-5 0 9994 2 42805 86.4022 1.1056 0002184 89.3223 270.8223 14.34217848457752 IRIDIUM 115 1 42806U 17039D 26074.52193748 .00000406 00000+0 11460-3 0 9992 2 42806 86.4556 1.2269 0001922 92.3047 267.8374 14.43282319460751 IRIDIUM 118 1 42807U 17039E 26074.61443205 .00000109 00000+0 31920-4 0 9993 2 42807 86.3985 32.7259 0002179 84.6278 275.5167 14.34218111456536 IRIDIUM 117 1 42808U 17039F 26074.63345936 .00000099 00000+0 28431-4 0 9999 2 42808 86.3983 32.6765 0002059 86.8422 273.3010 14.34218096456566 IRIDIUM 126 1 42809U 17039G 26074.58906162 .00000020 00000+0 81417-7 0 9998 2 42809 86.3987 32.7448 0002064 82.3288 277.8142 14.34217808456539 IRIDIUM 124 1 42810U 17039H 26074.45604744 .00000377 00000+0 10607-3 0 9991 2 42810 86.4525 329.5679 0002066 85.5643 274.5794 14.43279323461594 IRIDIUM 128 1 42811U 17039J 26074.51003120 .00000043 00000+0 84183-5 0 9992 2 42811 86.3918 64.3078 0002173 94.3955 265.7489 14.34217728456554 IRIDIUM 121 1 42812U 17039K 26074.60808944 .00000298 00000+0 99416-4 0 9996 2 42812 86.3987 32.7639 0002300 87.8638 272.2821 14.34218790456418 IRIDIUM 133 1 42955U 17061A 26074.47197550 .00000060 00000+0 14505-4 0 9991 2 42955 86.3921 64.4393 0002180 90.1690 269.9756 14.34217907441349 IRIDIUM 100 1 42956U 17061B 26074.46563223 .00000063 00000+0 15414-4 0 9998 2 42956 86.3919 64.3626 0002138 89.3433 270.8008 14.34217999441345 IRIDIUM 122 1 42957U 17061C 26074.50368687 .00000030 00000+0 36462-5 0 9992 2 42957 86.3918 64.3466 0002083 88.5458 271.5977 14.34217547441357 IRIDIUM 129 1 42958U 17061D 26074.52905738 .00000095 00000+0 26767-4 0 9996 2 42958 86.3920 64.4023 0002394 82.0163 278.1304 14.34218398441372 IRIDIUM 119 1 42959U 17061E 26074.35780161 .00000160 00000+0 50076-4 0 9992 2 42959 86.3920 64.4692 0002146 84.7604 275.3837 14.34220007441368 IRIDIUM 107 1 42960U 17061F 26074.51637235 .00000015 00000+0 -17410-5 0 9991 2 42960 86.3920 64.4238 0001764 91.3462 268.7936 14.34217554441399 IRIDIUM 132 1 42961U 17061G 26074.45294670 .00000078 00000+0 20704-4 0 9994 2 42961 86.3921 64.4303 0002130 90.4493 269.6947 14.34218038441385 IRIDIUM 136 1 42962U 17061H 26074.41489171 .00000004 00000+0 -54887-5 0 9993 2 42962 86.3922 64.4526 0001997 86.8297 273.3128 14.34217470441398 IRIDIUM 139 1 42963U 17061J 26074.49100304 .00000048 00000+0 99278-5 0 9990 2 42963 86.3922 64.4810 0002145 91.0648 269.0794 14.34217902441413 IRIDIUM 125 1 42964U 17061K 26074.47831609 -.00000006 00000+0 -91353-5 0 9990 2 42964 86.3926 64.5461 0001588 77.7487 282.3887 14.34217509441428 IRIDIUM 135 1 43070U 17083A 26074.31290433 .00000201 00000+0 64866-4 0 9993 2 43070 86.4028 1.2465 0002195 85.1821 274.9626 14.34217003430697 IRIDIUM 138 1 43071U 17083B 26074.33827580 .00000148 00000+0 45810-4 0 9993 2 43071 86.4041 0.9172 0002078 73.3850 286.7574 14.34218894430686 IRIDIUM 116 1 43072U 17083C 26074.51587010 .00000130 00000+0 39200-4 0 9992 2 43072 86.4025 1.1488 0002223 93.3601 266.7850 14.34218362430742 IRIDIUM 130 1 43073U 17083D 26074.55392474 .00000044 00000+0 87807-5 0 9996 2 43073 86.4035 1.3990 0001978 91.7054 268.4369 14.34218084430693 IRIDIUM 151 1 43074U 17083E 26074.52855593 .00000007 00000+0 -45028-5 0 9999 2 43074 86.4024 1.1993 0002109 85.3804 274.7632 14.34217533430716 IRIDIUM 134 1 43075U 17083F 26074.49684195 .00000063 00000+0 15267-4 0 9996 2 43075 86.4029 1.2192 0002037 87.5850 272.5579 14.34218060430676 IRIDIUM 137 1 43076U 17083G 26074.50952836 .00000010 00000+0 -33184-5 0 9991 2 43076 86.4028 1.3049 0002400 91.8377 268.3094 14.34217648430748 IRIDIUM 141 1 43077U 17083H 26074.29387922 .00000105 00000+0 30270-4 0 9992 2 43077 86.4024 1.2308 0002126 83.2996 276.8442 14.34218488430710 IRIDIUM 153 1 43078U 17083J 26074.45536118 .00000189 00000+0 60430-4 0 9997 2 43078 86.4004 329.6760 0001974 78.1469 281.9948 14.34217049431841 IRIDIUM 131 1 43079U 17083K 26074.49049915 .00000079 00000+0 21078-4 0 9999 2 43079 86.4029 1.3283 0002221 83.3174 276.8275 14.34218307430674 IRIDIUM 144 1 43249U 18030A 26074.25240065 .00000046 00000+0 92701-5 0 9990 2 43249 86.4003 329.6922 0002090 88.5872 271.5564 14.34218007416671 IRIDIUM 149 1 43250U 18030B 26074.46804915 .00000261 00000+0 86295-4 0 9994 2 43250 86.4001 329.5703 0002134 83.7982 276.3457 14.34218364416721 IRIDIUM 157 1 43251U 18030C 26074.41730790 .00000089 00000+0 24693-4 0 9991 2 43251 86.4004 329.6425 0002108 84.5848 275.5588 14.34217980416693 IRIDIUM 140 1 43252U 18030D 26074.64564089 .00000056 00000+0 12767-4 0 9996 2 43252 86.4000 329.5599 0002027 86.2924 273.8503 14.34218026416785 IRIDIUM 145 1 43253U 18030E 26074.21434081 .00000245 00000+0 80482-4 0 9997 2 43253 86.4003 329.7123 0002089 95.1558 264.9876 14.34216916416650 IRIDIUM 146 1 43254U 18030F 26074.61392775 .00000082 00000+0 22198-4 0 9994 2 43254 86.4003 329.5582 0002167 89.0304 271.1140 14.34218261416723 IRIDIUM 148 1 43255U 18030G 26074.44267854 .00000024 00000+0 16032-5 0 9992 2 43255 86.4002 329.6713 0002138 85.6902 274.4539 14.34217698416736 IRIDIUM 142 1 43256U 18030H 26074.62027094 .00000108 00000+0 31663-4 0 9992 2 43256 86.4002 329.4897 0002128 93.8721 266.2718 14.34218131416727 IRIDIUM 150 1 43257U 18030J 26074.65832562 .00000178 00000+0 56469-4 0 9998 2 43257 86.4003 329.5869 0002054 86.3904 273.7527 14.34217675416753 IRIDIUM 143 1 43258U 18030K 26074.22068786 .00000019 00000+0 -44809-6 0 9993 2 43258 86.4002 329.8582 0001967 90.9405 269.2016 14.34217615416620 IRIDIUM 161 1 43478U 18047C 26074.57237890 .00000306 00000+0 85076-4 0 9994 2 43478 86.4490 127.6249 0002446 87.2285 272.9196 14.43277799411632 IRIDIUM 152 1 43479U 18047D 26074.54224858 .00000132 00000+0 39971-4 0 9992 2 43479 86.3963 127.4979 0002222 91.3383 268.8068 14.34217758409067 IRIDIUM 147 1 43480U 18047E 26074.54859116 .00000130 00000+0 39246-4 0 9998 2 43480 86.3964 127.4988 0002303 98.1016 262.0441 14.34217906409064 IRIDIUM 110 1 43481U 18047F 26074.62470257 .00000055 00000+0 12570-4 0 9990 2 43481 86.3968 127.5563 0002328 84.5039 275.6422 14.34217838409063 IRIDIUM 162 1 43482U 18047G 26074.56607324 .00000304 00000+0 84269-4 0 9992 2 43482 86.4486 127.5198 0002155 94.9499 265.1948 14.43279025411625 IRIDIUM 160 1 43569U 18061A 26074.50076980 .00000057 00000+0 13410-4 0 9991 2 43569 86.3910 95.9837 0002324 90.0009 270.1453 14.34217761399948 IRIDIUM 166 1 43570U 18061B 26074.52614005 .00000040 00000+0 71807-5 0 9998 2 43570 86.3910 95.9248 0002259 94.8320 265.3134 14.34217639399970 IRIDIUM 158 1 43571U 18061C 26074.49442707 .00000093 00000+0 26102-4 0 9998 2 43571 86.3909 95.9481 0002070 90.0394 270.1039 14.34217758399934 IRIDIUM 165 1 43572U 18061D 26074.51979741 .00000042 00000+0 78857-5 0 9994 2 43572 86.3909 95.9821 0002254 95.5797 264.5656 14.34217514399969 IRIDIUM 155 1 43573U 18061E 26074.55150995 .00000055 00000+0 12529-4 0 9998 2 43573 86.3907 95.8423 0002081 94.0290 266.1144 14.34217779399935 IRIDIUM 154 1 43574U 18061F 26074.53248286 -.00000071 00000+0 -32455-4 0 9998 2 43574 86.3914 95.9793 0002200 96.4178 263.7269 14.34217404399980 IRIDIUM 163 1 43575U 18061G 26074.44368551 .00000020 00000+0 69683-7 0 9995 2 43575 86.3910 95.9347 0002064 90.9807 269.1625 14.34217521399940 IRIDIUM 156 1 43576U 18061H 26074.55785233 .00000059 00000+0 14007-4 0 9997 2 43576 86.3908 95.8941 0002082 95.2211 264.9222 14.34217713399954 IRIDIUM 164 1 43577U 18061J 26074.53882355 .00000051 00000+0 11215-4 0 9999 2 43577 86.3913 95.9411 0002424 94.0781 266.0692 14.34218183399993 IRIDIUM 159 1 43578U 18061K 26074.50711270 -.00000032 00000+0 -18395-4 0 9991 2 43578 86.3910 95.8930 0002196 88.5927 271.5520 14.34217062399954 IRIDIUM 180 1 43922U 19002A 26074.43683975 .00000059 00000+0 13981-4 0 9995 2 43922 86.3983 32.7629 0002240 84.3200 275.8251 14.34217954375558 IRIDIUM 176 1 43923U 19002B 26074.43153545 .00000525 00000+0 79420-4 0 9999 2 43923 86.6110 32.7218 0002631 88.4715 271.6804 14.72251560385459 IRIDIUM 168 1 43924U 19002C 26074.63980301 .00000249 00000+0 81745-4 0 9996 2 43924 86.3985 32.7527 0002191 85.9963 274.1483 14.34218021375563 IRIDIUM 173 1 43925U 19002D 26074.62711652 .00000069 00000+0 17689-4 0 9993 2 43925 86.3983 32.6506 0002036 84.6740 275.4688 14.34218093375543 IRIDIUM 169 1 43926U 19002E 26074.49106404 .00000129 00000+0 35493-4 0 9992 2 43926 86.4177 64.3580 0001514 91.8358 268.3014 14.38606839376750 IRIDIUM 172 1 43927U 19002F 26074.62077226 .00000137 00000+0 41680-4 0 9991 2 43927 86.3983 32.6608 0002280 83.9787 276.1668 14.34218663375552 IRIDIUM 175 1 43928U 19002G 26074.63090362 .00000871 00000+0 13413-3 0 9996 2 43928 86.1533 329.8429 0002842 101.9178 258.2357 14.72241808385470 IRIDIUM 171 1 43929U 19002H 26074.60174728 .00000024 00000+0 16285-5 0 9995 2 43929 86.3992 32.9648 0002194 91.6687 268.4760 14.34217753375545 IRIDIUM 170 1 43930U 19002J 26074.36975259 .00001064 00000+0 16482-3 0 9990 2 43930 86.6104 32.7502 0002624 87.0195 273.1322 14.72249015385459 IRIDIUM 167 1 43931U 19002K 26074.38609850 -.00000017 00000+0 -13014-4 0 9992 2 43931 86.3982 32.7809 0001896 95.3084 264.8328 14.34217392375510 IRIDIUM 181 1 56726U 23068S 26074.51177625 .00000180 00000+0 47347-4 0 9995 2 56726 86.4446 95.9629 0002623 91.7678 268.3823 14.43309328148924 IRIDIUM 177 1 56727U 23068T 26074.35637572 .00001535 00000+0 19851-3 0 9993 2 56727 86.2011 13.3342 0002200 76.0837 284.0629 14.80226883152481 IRIDIUM 174 1 56728U 23068U 26074.35737416 .00001268 00000+0 19713-3 0 9992 2 56728 86.6113 32.8934 0002578 78.3499 281.8007 14.72253813152219 IRIDIUM 178 1 56729U 23068V 26074.48065754 .00000533 00000+0 66725-4 0 9996 2 56729 86.6492 64.5144 0002593 98.5215 261.6300 14.80231494152506 IRIDIUM 179 1 56730U 23068W 26074.47528068 .00000519 00000+0 64815-4 0 9991 2 56730 86.6725 73.2250 0002370 95.8324 264.3168 14.80230010152501